Location: Foulognes
(49.1413°N, 0.8183°W)
Time: 12:54:37
(UTC+00:00)

STARLINK-69 - Pass Details

Date: 21 October 2019
Orbit: 549 x 551 km, 53.0° (Epoch: 19 November)

Event Time Altitude Azimuth Distance (km) Brightness Sun altitude
Rises 18:41:32 0° 283° (WNW) 2,719 8.8 -16.9°
Reaches altitude 10° 18:43:49 10° 289° (WNW) 1,826 7.5 -17.3°
Maximum altitude 18:47:51 49° 5° (N) 713 4.1 -17.9°
Enters shadow 18:49:09 35° 56° (NE) 895 4.3 -18.1°
